Regional Weather Roundup
Issued by NWS

Home | Current Version | Previous Version | Graphics & Text | Print | Product List | Glossary On
Versions: 1 2 3 4 5 6 7 8 9 10 11 12 13 14 15 16 17 18 19 20 21 22 23 24 25 26 27 28 29 30 31 32 33 34 35 36 37 38 39 40 41 42 43 44 45 46 47 48 49 50
000
ASUS43 KBIS 262210
RWRND

NORTH DAKOTA REGIONAL WEATHER ROUNDUP
NATIONAL WEATHER SERVICE BISMARCK ND
500 PM CDT WED APR 26 2017

NOTE: "FAIR" INDICATES FEW OR NO CLOUDS BELOW 12,000 FEET WITH NO
SIGNIFICANT WEATHER AND/OR OBSTRUCTIONS TO VISIBILITY.


NDZ001>003-009>011-017-262300-
NORTHWEST NORTH DAKOTA

CITY           SKY/WX    TMP DP  RH WIND       PRES   REMARKS
WILLISTON      FAIR      52  22  30 NE10      29.79F
MINOT          FAIR      50  23  34 NE16G23   29.78F
MINOT AFB      SUNNY     48  22  35 NE17      29.78F
$$

NDZ018>021-031>035-040>046-262300-
SOUTHWEST NORTH DAKOTA

CITY           SKY/WX    TMP DP  RH WIND       PRES   REMARKS
BISMARCK       PTSUNNY   46  28  49 N13G22    29.76F
DICKINSON      FAIR      47  22  37 NE10      29.73F
GARRISON         N/A     48  24  39 N9G20     29.76F
HETTINGER ARPT SUNNY     48  24  39 N13       29.74F
$$

NDZ004>008-012>016-024-026-027-054-262300-
NORTHEAST NORTH DAKOTA

CITY           SKY/WX    TMP DP  RH WIND       PRES   REMARKS
GRAND FORKS    HVY SNOW  31  29  92 N14       29.78F VSB 1/4
GRND FRKS AFB  LGT SNOW  30  28  93 NE16      29.79S VSB 1   WCI  19
DEVILS LAKE    CLOUDY    36  27  69 NE18      29.79S
$$

NDZ022-023-025-028>030-036>039-047>053-262300-
SOUTHEAST NORTH DAKOTA

CITY           SKY/WX    TMP DP  RH WIND       PRES   REMARKS
FARGO          LGT SNOW  30  27  88 N20       29.72F VSB 3/4 WCI  17
JAMESTOWN      CLOUDY    31  25  78 N15       29.76S
$$




USA.gov is the U.S. government's official web portal to all federal, state and local government web resources and services.